• Join FlightAware (Why Join?)
  • Login
  • US Flag 
07:55PM EST


 

Airport Tracker/Info


-or-


 

Live Flight TrackerFlight Track Log ✈ UAL252 ✈ 30-Jul-2013 ✈ KORD - KPVD

Flight Track Log - Related Links

Times and Time Zones

All times are in EDT time to prevent confusion due to time zone crossing. See the UAL252 flight status page for this flight to view local times or setup timezone preferences in your user account.

Time Position Orientation Groundspeed Altitude Reporting Facility
EDT Latitude Longitude Course Direction KTS MPH feet Rate Location/Type
02:34PM 41.9333 -87.9000 80° East 163 188 2,700  Level Chicago TRACON
02:35PM 41.9167 -87.8333 109° East 205 236 3,900 2,000 Climbing Chicago TRACON
02:36PM 42.0454 -87.4177 83° East  Level FlightAware Approximate
02:36PM 41.9333 -87.7167 79° East 279 321 6,900  Level Chicago TRACON
02:37PM 42.0687 -87.2456 78° East  Level FlightAware Approximate
02:37PM 41.9622 -87.6081 70° East 294 338 9,900  Level Chicago Center
02:38PM 42.0959 -87.0744 77° East  Level FlightAware Approximate
02:38PM 41.9919 -87.4967 70° East 312 359 13,000  Level Chicago Center
02:39PM 42.1144 -86.9014 80° East  Level FlightAware Approximate
02:39PM 42.0272 -87.3694 69° East 337 388 14,700  Level Chicago Center
02:40PM 42.0608 -87.2469 70° East 367 422 16,700 1,742 Climbing Chicago Center
02:42PM 42.1056 -87.0842 70° East 392 451 18,300 1,694 Climbing Chicago Center
02:43PM 42.1161 -86.9489 84° East 403 464 20,200 1,790 Climbing Chicago Center
02:44PM 42.1219 -86.7922 87° East 416 479 22,000 1,452 Climbing Chicago Center
02:45PM 42.1272 -86.6314 87° East 428 493 23,200 1,452 Climbing Chicago Center
02:46PM 42.1344 -86.4317 87° East 444 511 25,000 1,500 Climbing Chicago Center
02:47PM 42.1392 -86.2625 88° East 449 517 26,300 1,258 Climbing Chicago Center
02:48PM 42.1444 -86.0889 88° East 460 529 27,600 1,306 Climbing Chicago Center
02:49PM 42.1422 -85.8906 91° East 472 543 29,000 1,161 Climbing Chicago Center
02:50PM 42.1406 -85.7117 91° East 479 551 30,000 912 Climbing Chicago Center
02:51PM 42.1397 -85.5264 90° East 493 567 30,900 952 Climbing Chicago Center
02:52PM 42.1375 -85.3381 91° East 503 579 32,000 1,016 Climbing Chicago Center
02:53PM 42.1353 -85.1506 91° East 504 580 33,000 878 Climbing Chicago Center
02:54PM 42.1325 -84.9597 91° East 509 586 33,800 823 Climbing Chicago Center
02:55PM 42.1286 -84.7283 91° East 515 593 34,700 1,016 Climbing Chicago Center
02:56PM 42.1253 -84.5328 91° East 521 600 35,900 1,065 Climbing Chicago Center
02:57PM 42.1294 -84.3411 88° East 516 594 36,900 532 Climbing Chicago Center
02:58PM 42.1361 -84.1514 87° East 511 588 37,000 43 Climbing Chicago Center
02:59PM 42.1414 -83.9017 88° East 503 579 37,000  Level Cleveland Center
03:00PM 42.1472 -83.6919 88° East 503 579 37,000  Level Cleveland Center
03:01PM 42.1542 -83.4989 87° East 515 593 37,000  Level Cleveland Center
03:02PM 42.1611 -83.3031 87° East 515 593 37,000  Level Cleveland Center
03:03PM 42.1614 -83.1069 90° East 515 593 37,000  Level Cleveland Center
03:04PM 42.1675 -82.9225 87° East 510 587 37,000  Level Cleveland Center
03:05PM 42.1733 -82.7319 88° East 505 581 37,000  Level Cleveland Center
03:06PM 42.1744 -82.5444 89° East 500 575 37,000  Level Cleveland Center
03:07PM 42.1775 -82.3567 89° East 500 575 37,000  Level Cleveland Center
03:08PM 42.1825 -82.1636 88° East 495 570 37,000  Level Cleveland Center
03:09PM 42.1847 -81.9983 89° East 495 570 37,000  Level Cleveland Center
03:10PM 42.1892 -81.7908 88° East 500 575 37,000  Level Cleveland Center
03:11PM 42.1911 -81.5978 89° East 500 575 37,000  Level Cleveland Center
03:12PM 42.1925 -81.4100 89° East 494 568 37,000  Level Cleveland Center
03:13PM 42.1936 -81.2222 89° East 495 570 37,000  Level Cleveland Center
03:14PM 42.1967 -81.0372 89° East 495 570 37,000  Level Cleveland Center
03:15PM 42.1953 -80.8467 90° East 495 570 37,000  Level Cleveland Center
03:16PM 42.1956 -80.6589 90° East 495 570 37,000  Level Cleveland Center
03:17PM 42.1975 -80.4683 89° East 500 575 37,000  Level Cleveland Center
03:18PM 42.2014 -80.3028 88° East 500 575 37,000  Level Cleveland Center
03:19PM 42.2197 -80.1178 82° East 495 570 37,000  Level Cleveland Center
03:20PM 42.2394 -79.9156 82° East 500 575 37,000  Level Cleveland Center
03:21PM 42.2550 -79.7275 84° East 495 570 37,000  Level Cleveland Center
03:22PM 42.2722 -79.5422 83° East 495 570 37,000  Level Cleveland Center
03:23PM 42.2892 -79.3594 83° East 501 577 37,000  Level Cleveland Center
03:24PM 42.3058 -79.1739 83° East 501 577 37,000  Level Cleveland Center
03:25PM 42.3219 -78.9881 83° East 501 577 37,000  Level Cleveland Center
03:26PM 42.3342 -78.8219 84° East 501 577 37,000  Level Cleveland Center
03:27PM 42.3500 -78.6361 83° East 501 577 37,000  Level Cleveland Center
03:28PM 42.3672 -78.4361 83° East 496 571 37,000  Level Cleveland Center
03:29PM 42.3825 -78.2528 84° East 496 571 37,000  Level Cleveland Center
03:30PM 42.3933 -78.0725 85° East 496 571 37,000  Level Cleveland Center
03:31PM 42.4081 -77.8919 84° East 491 565 37,000  Level Cleveland Center
03:32PM 42.4203 -77.7086 85° East 485 558 37,000 -50 Level Cleveland Center
03:33PM 42.4364 -77.5250 83° East 485 558 36,900  Descending Cleveland Center
03:36PM 42.4644 -77.1214 84° East 483 556 37,000 30 Climbing Boston Center
03:37PM 42.4761 -76.9336 85° East 493 567 37,000 50 Level Boston Center
03:38PM 42.4897 -76.7458 84° East 493 567 37,100  Climbing Boston Center
03:39PM 42.5008 -76.5606 85° East 493 567 37,000 -50 Descending Boston Center
03:40PM 42.5050 -76.3778 88° East 493 567 37,000 -45 Level Boston Center
03:41PM 42.4539 -76.1633 108° East 493 567 36,900 -46 Descending Boston Center
03:42PM 42.4072 -75.9919 110° East 485 558 36,900  Level Boston Center
03:43PM 42.3817 -75.8075 101° East 485 558 36,900  Level Boston Center
03:44PM 42.3536 -75.6233 102° East 490 564 36,900 -271 Level Boston Center
03:45PM 42.3253 -75.4422 102° East 490 564 36,300 -806 Descending Boston Center
03:46PM 42.2939 -75.1964 100° East 490 564 35,100 -1,017 Descending Boston Center
03:47PM 42.2664 -75.0408 103° East 488 562 34,300 -923 Descending Boston Center
03:48PM 42.2369 -74.8575 102° East 488 562 33,300 -992 Descending Boston Center
03:49PM 42.2075 -74.6711 102° East 488 562 32,300 -1,240 Descending Boston Center
03:50PM 42.1778 -74.4881 102° East 493 567 30,800 -1,636 Descending Boston Center
03:51PM 42.1686 -74.2833 93° East 493 567 29,000 -1,835 Descending Boston Center
03:52PM 42.1842 -74.0958 84° East 488 562 27,100 -1,587 Descending Boston Center
03:53PM 42.2011 -73.9169 83° East 488 562 25,800 -1,322 Descending Boston Center
03:54PM 42.2178 -73.7436 83° East 483 556 24,500 -1,231 Descending Boston Center
03:55PM 42.2361 -73.5842 81° East 483 556 23,400 -1,140 Descending Boston Center
03:56PM 42.2503 -73.4161 83° East 462 532 22,200 -1,190 Descending Boston Center
03:57PM 42.2558 -73.2481 87° East 441 507 21,000 -1,091 Descending Boston Center
03:58PM 42.1961 -73.1267 124° Southeast 404 465 20,000 -942 Descending Boston Center
03:59PM 42.1261 -73.0028 127° Southeast 402 463 19,100 -500 Descending Boston Center
04:00PM 42.0536 -72.8819 129° Southeast 416 479 19,000 -51 Descending Boston Center
04:01PM 41.9811 -72.7583 128° Southeast 421 484 19,000 -605 Level Boston Center
04:02PM 41.9022 -72.6214 128° Southeast 421 484 17,800 -1,537 Descending Boston Center
04:03PM 41.8439 -72.5153 126° Southeast 413 475 15,900 -2,000 Descending Boston Center
04:04PM 41.7731 -72.3872 127° Southeast 401 461 13,800 -2,018 Descending Boston Center
04:05PM 41.7147 -72.2872 128° Southeast 372 428 12,100 -1,400 Descending Boston Center
04:06PM 41.6519 -72.1678 125° Southeast 368 423 11,000 -520 Descending Boston Center
04:07PM 41.5994 -72.0736 127° Southeast 357 411 11,000  Level Boston Center
04:08PM 41.5408 -71.9519 123° Southeast 357 411 11,000 -298 Level Boston Center
04:09PM 41.5069 -71.8497 114° Southeast 340 391 10,400 -1,143 Descending Boston Center
04:10PM 41.5500 -71.7356 63° Northeast 301 346 8,600 -1,465 Descending Boston Center
04:11PM 41.6078 -71.6656 42° Northeast 290 334 7,300 -1,392 Descending Boston Center
04:12PM 41.6719 -71.6092 33° Northeast 277 319 5,700 -1,152 Descending Boston Center
04:13PM 41.7403 -71.5469 34° Northeast 273 314 4,900 -645 Descending Boston Center
04:14PM 41.7942 -71.5017 32° Northeast 200 230 4,400 -992 Descending Boston Center
04:15PM 41.8250 -71.4511 51° Northeast 175 201 2,900 -1,339 Descending Boston Center
04:16PM 41.7975 -71.3931 122° Southeast 185 213 1,700 -1,041 Descending Boston Center
04:17PM 41.7536 -71.3994 186° South 145 167 800 -885 Descending Boston Center